DECAYED
Showing default

NARSSCUBE-2, 44415 (Decayed)

Orbit data source: Space-Track

NARSSCUBE-2, 44415 was a payload satellite owned by EgSA (EG) in LEO that was launched on Wed, 17 Apr 2019 UTC via an FALCON 9 launch vehicle from the Wallops Island (WLPIS). Payloads include a variety of satellites, spacecraft, and rockets equipped with specific instruments for various scientific and technological missions. These include communications satellites like Starlink; space stations such as the ISS; scientific satellites like the Hubble; Earth observation satellites from companies like Planet Labs, Umbra, and HawkEye 360; GPS; miniature CubeSats for education and research; and military/defense satellites.

Not visible in the next 10 days
NARSSCUBE-2 details
Identifier
44415, 2019-022E
Orbit
Decayed
Last TLE update9 months ago
Origin
Flag of EGEgSA (EG / EGYP)
ManufacturerEgSA
MissionDecayed Civil Technology
Bus & MotorCUBESAT 1U, Unknown motor
Mass1 kg wet, 1 kg dry
Launch date (UTC)
2019-04-17 (6 years ago)
Launch vehicle
FALCON 9
Launch site
Wallops Island (WLPIS)
Object type
Payload
Rocket body
Debris
Shape & HBRBox, Unknown HBR
Radar Cross Section0.015 m², Small (<0.1 m²)

Expand to show TLE details & history

TLE from 9 months ago
0 NARSSCUBE-2
1 44415U 19022E   24092.07861115  .12359287  12624-4  24570-3 0  9995
2 44415  51.6010 111.7418 0002972 304.4343  55.6405 16.47098938261589
Epoch: 2024-04-01T01:53Z
Definitive object data (Epoch: 2024-04-01T01:53:12.003Z)
Latitude-0.00002°
Longitude-106.48225°
Altitude146.66 km
Speed7.82 km/s
True Right ascension07h 26m 58s
True Declination0° 00' 00"
Sunlit
Object was in daylight at TLE epoch
Visualization observer readout
Observer readout values are unavailable because the object's trajectory could not be propagated. This is usually caused when the trajectory data is faulty or the object's orbit has decayed.
Visualization observer readout
Observer readout values are unavailable because the object's trajectory could not be propagated. This is usually caused when the trajectory data is faulty or the object's orbit has decayed.
Orbital elements
Apogee altitude149.461 km
Perigee altitude145.582 km
Semi-major axis6,525.659 km
Eccentricity0.0002972
Inclination51.601°
RAAN111.7418°
Arg. of periapsis304.4343°
True anomaly55.66862°
Mean anomaly55.6405°
Eccentric anomaly55.65456°
Mean motion4.11724 °/min
BSTAR0.0002457
Orbital period87.44 mins
Loading maneuver chart data...

NARSSCUBE-2 Visibility forecast

Observer location: undefined°, undefined

This satellite is decayed
Span
Click to sort rows by Start time (UTC) header in descending order
Start Az.
Max El. time (UTC)
Max El. Az.
Max El.
End time (UTC)
End Az.
|